Wind_Speed
28 28 27 26 26 26 25 25 24 23 22 22 21 22 22 21 20 19 18 17 16 16 15 15 14 14 14 14 13 13 13 14 14 14 14 14 14 15 15 16 17 17 18 19 20 20 20 21 21 21 21 21 22 22 22 22 23 23 24 25 25 26 26 27 28 28 28 28 28
28 28 27 26 25 25 24 24 24 23 22 22 21 21 21 21 20 19 18 17 16 16 15 15 15 14 14 14 13 13 13 13 13 14 14 14 15 15 16 16 17 18 18 19 19 20 20 20 21 21 21 22 22 22 23 23 23 24 24 25 26 26 26 27 27 27 27 27 27
28 27 27 26 25 24 24 24 23 23 22 21 21 20 20 20 20 19 18 17 16 16 15 15 14 14 13 13 13 13 13 13 14 14 14 15 15 15 16 17 17 18 18 18 19 19 20 20 20 21 22 22 22 23 23 24 24 24 25 26 26 26 26 26 26 26 26 26 26
27 27 26 26 25 24 24 24 23 23 23 22 21 20 19 19 19 18 18 17 16 15 15 14 14 13 13 13 13 13 13 14 14 14 15 15 15 16 16 17 17 18 18 18 19 19 20 20 21 22 22 23 23 24 25 25 25 25 26 26 26 26 26 26 26 26 26 26 26
26 26 27 26 25 25 24 24 23 23 22 22 21 20 20 19 18 18 17 16 16 15 14 13 13 13 13 13 13 13 14 14 14 14 15 15 16 16 17 17 18 18 18 19 19 20 21 21 22 22 23 24 24 25 25 25 25 26 26 27 26 26 26 26 26 26 26 26 26
25 26 26 26 25 24 23 23 23 22 21 21 21 21 20 20 19 18 17 16 15 14 13 12 12 12 12 12 13 13 14 14 14 14 15 16 16 17 17 18 18 19 19 20 20 21 21 22 23 23 24 24 24 25 25 25 25 26 27 27 26 26 26 26 26 26 26 26 26
24 25 25 25 24 23 22 22 21 20 20 20 20 21 20 20 19 18 16 15 14 13 12 12 12 12 12 13 13 14 14 14 15 15 16 17 17 18 18 19 19 20 20 21 21 22 22 22 23 24 24 24 24 24 25 25 25 26 27 27 27 26 26 26 26 26 26 27 28
23 24 24 24 24 23 22 21 20 19 19 19 20 20 19 19 18 16 15 14 13 12 12 12 12 12 13 13 14 14 15 15 16 16 17 18 19 19 19 20 20 21 21 21 22 22 23 23 23 24 24 24 25 25 26 26 26 27 28 29 29 28 27 28 28 28 28 29 30
22 23 23 24 23 23 22 20 19 19 19 19 19 19 18 17 16 15 14 14 13 13 12 13 13 13 13 14 14 15 15 16 16 17 18 18 19 20 20 20 21 21 22 22 22 22 23 23 23 24 25 25 26 26 27 27 28 29 30 30 30 30 30 29 29 30 30 30 31
22 22 23 23 23 22 21 20 20 20 20 19 19 18 17 16 16 15 15 14 13 13 13 13 13 14 14 14 15 15 15 16 17 18 18 19 19 20 20 20 21 22 22 22 22 23 23 23 24 25 26 27 28 29 29 29 30 30 31 30 30 31 31 31 30 31 31 31 32
22 22 23 23 23 22 22 21 21 21 20 20 19 18 17 16 16 15 15 14 14 14 14 14 13 14 14 15 15 15 16 17 17 18 19 19 19 20 20 20 21 22 22 23 23 23 23 24 25 26 27 28 29 29 30 30 30 31 31 31 31 31 32 32 31 31 31 31 32
22 22 22 23 23 23 23 22 22 21 21 20 19 18 17 16 16 15 15 14 14 14 14 13 13 14 14 15 15 16 16 17 17 18 18 19 19 19 20 21 21 22 23 23 23 24 24 25 26 27 28 29 29 29 29 30 30 30 31 32 31 31 32 32 32 31 31 31 32
22 22 22 23 23 23 23 23 23 22 21 20 19 18 17 17 16 15 15 14 14 14 13 13 14 14 15 15 16 16 16 17 17 17 18 18 19 20 20 21 22 23 24 24 24 24 25 26 27 28 29 30 30 29 29 30 30 30 31 32 32 32 32 32 32 32 32 32 32
23 23 23 23 23 23 23 23 23 22 22 21 20 19 17 16 16 15 14 14 14 13 13 13 14 14 15 15 16 16 16 16 17 17 18 19 19 20 21 22 23 24 24 25 25 25 26 27 27 28 29 30 30 31 30 30 31 31 31 32 32 33 33 33 33 33 32 33 33
23 23 23 23 23 23 24 23 23 22 21 20 20 18 17 16 15 14 14 13 13 13 13 14 14 15 15 15 15 16 16 16 17 18 19 20 20 21 22 23 24 24 25 25 26 26 26 27 27 28 29 30 31 32 32 32 32 32 32 32 33 33 33 33 33 33 33 33 33
23 23 23 24 24 24 24 24 23 22 21 20 19 17 16 14 14 13 13 13 13 13 14 14 15 15 15 15 15 15 16 16 17 18 19 21 21 22 23 24 24 25 25 26 26 26 27 27 28 29 30 31 32 32 33 33 33 33 33 33 33 33 34 34 33 33 33 33 33
24 24 24 24 25 25 25 24 23 22 21 19 18 16 15 14 13 13 13 13 13 14 14 15 15 15 15 15 16 16 17 18 19 20 21 21 22 23 24 24 25 25 26 26 27 28 28 29 29 30 31 32 32 33 33 33 33 33 33 33 33 33 33 33 33 33 33 33 33
24 24 24 25 25 26 25 25 24 22 21 19 17 16 15 14 14 14 14 14 14 14 15 15 15 16 16 17 17 17 18 19 20 21 21 22 23 24 25 25 26 26 27 27 28 29 30 30 31 31 31 32 32 32 32 33 33 33 33 33 33 33 33 33 33 33 33 33 33
25 25 25 25 26 26 25 25 24 22 20 18 17 16 15 15 15 15 15 15 15 15 16 16 16 17 17 17 18 18 19 19 20 21 22 23 23 24 25 26 27 27 27 28 29 29 30 31 31 31 31 32 32 32 32 32 32 32 32 32 33 33 33 33 33 33 33 33 33
26 26 26 26 26 26 25 24 23 21 19 18 17 16 16 15 15 15 16 16 16 16 16 16 16 17 17 17 18 18 19 19 20 22 23 23 24 25 26 27 27 28 28 29 29 30 30 31 31 31 31 31 32 32 33 33 33 33 33 33 33 33 33 33 33 33 32 32 33
26 26 26 26 25 25 24 23 22 20 19 18 17 16 16 16 16 16 16 15 15 15 15 15 16 16 17 17 18 19 19 20 21 22 23 24 25 26 27 27 28 28 29 29 29 30 30 30 31 31 31 32 32 32 32 32 33 33 33 33 33 33 33 33 33 33 33 33 33
26 26 26 25 25 24 23 22 21 19 18 17 17 16 16 16 15 15 15 14 14 14 15 15 15 16 17 17 18 19 20 21 22 23 24 25 27 27 28 28 28 28 29 29 29 29 30 30 30 31 31 31 32 32 32 32 32 32 33 33 33 33 33 32 32 31 31 31 32
26 25 25 24 24 23 22 21 20 19 18 17 17 16 16 15 15 14 14 14 14 14 14 15 15 16 17 18 19 20 21 22 23 25 26 26 27 28 28 27 27 28 28 28 29 29 29 30 30 30 30 30 31 31 32 32 32 32 32 32 32 32 32 32 31 31 31 31 31
25 24 24 24 23 22 22 21 20 19 18 18 17 16 15 15 14 13 13 13 13 14 14 15 16 17 18 18 19 21 22 23 25 26 26 27 27 27 27 27 27 27 27 28 28 28 28 28 29 29 29 29 30 30 31 31 31 31 31 31 31 31 32 32 32 32 31 32 33
24 24 24 23 23 22 22 21 20 19 18 18 17 16 15 14 13 13 13 13 13 14 15 15 16 17 18 19 20 21 22 24 25 26 26 26 26 26 26 26 26 27 27 27 27 27 27 27 27 28 29 30 30 31 31 31 31 31 31 31 31 31 32 33 33 33 33 33 34
24 24 24 23 23 22 22 21 20 19 18 17 16 15 14 14 13 13 13 13 14 14 15 16 17 18 19 20 21 22 23 23 24 25 25 26 26 26 26 26 27 27 27 28 28 27 27 27 28 29 29 30 31 31 32 32 32 31 31 31 31 31 31 31 33 34 34 33 33
25 24 24 24 23 22 21 21 20 19 17 16 15 14 14 13 13 13 13 14 14 15 15 16 17 18 19 20 21 22 23 23 24 24 25 25 26 26 27 27 28 28 28 28 28 28 28 28 29 29 30 30 31 32 32 31 31 31 30 30 29 29 29 30 31 32 33 32 32
25 25 24 23 22 22 21 20 19 18 17 16 14 14 13 12 13 13 14 14 15 15 16 17 17 18 19 20 21 22 23 23 23 24 25 26 27 28 28 28 29 29 29 28 28 28 28 29 29 29 30 30 31 32 32 31 30 29 28 28 28 28 29 30 31 31 32 32 32
25 25 24 23 22 21 20 19 18 17 16 15 14 13 13 13 13 14 14 15 15 16 17 17 18 18 19 20 21 22 23 24 24 25 26 27 27 28 29 29 29 29 29 28 28 28 28 29 29 30 30 30 30 30 30 29 28 27 27 27 28 29 30 30 31 31 32 32 32
25 25 24 23 22 21 20 19 17 16 15 14 13 13 13 13 13 14 15 15 16 16 17 17 18 19 20 21 22 23 24 25 25 25 26 27 27 28 28 29 29 29 29 28 28 28 29 29 30 30 30 30 30 30 29 29 28 28 28 28 29 30 30 31 32 32 32 32 33
25 24 23 22 21 20 19 18 16 15 14 13 13 13 13 13 14 15 15 16 16 17 17 18 19 20 21 22 23 24 24 25 25 25 26 26 27 28 29 29 30 30 30 29 29 28 29 29 29 30 30 30 30 29 29 29 29 29 30 30 31 31 31 30 31 32 32 33 33
24 23 22 22 20 19 18 16 15 14 13 13 13 13 13 14 15 15 16 16 17 17 18 19 20 21 22 22 23 23 24 24 25 25 25 26 27 28 29 30 30 30 30 29 28 28 29 29 29 30 30 30 30 30 31 31 30 30 30 31 32 32 32 31 30 31 33 33 33
23 23 22 21 19 18 16 15 14 13 13 13 13 14 14 14 15 16 16 17 17 18 19 19 20 21 21 22 22 23 23 24 25 25 26 26 27 28 29 30 30 30 30 29 28 28 29 29 30 30 31 31 30 30 30 30 29 29 29 30 31 31 31 31 32 32 33 34 34
22 21 20 19 18 17 15 14 14 13 13 13 14 14 14 15 15 16 17 17 17 18 18 19 19 20 21 21 22 23 24 24 25 26 26 27 27 28 30 30 31 31 30 29 28 29 29 30 30 31 31 31 30 30 29 29 28 28 29 30 31 31 31 31 32 33 33 34 34
22 21 19 18 17 16 15 14 14 14 14 14 14 14 14 15 15 16 16 17 17 17 18 19 19 20 21 22 22 23 24 25 25 26 26 27 28 29 30 31 32 32 31 29 29 29 30 30 30 31 31 30 29 29 29 28 28 28 28 30 30 31 31 31 32 32 33 33 34
21 20 19 18 17 16 15 15 14 14 14 14 14 14 14 15 15 16 16 16 17 18 19 20 20 21 21 22 23 23 23 24 25 26 27 27 28 29 31 32 33 33 31 30 29 29 29 30 30 30 30 29 28 28 28 28 27 27 28 29 30 30 31 31 32 32 33 33 33
20 19 18 17 17 16 15 14 14 14 14 14 14 14 14 14 15 16 16 16 17 18 19 20 21 21 21 22 22 23 23 24 25 26 27 28 28 29 31 32 33 33 32 30 29 29 29 30 30 30 29 29 28 27 27 27 27 27 28 28 29 30 31 31 31 31 32 32 33
19 18 18 17 16 16 15 14 14 13 13 13 13 13 14 14 15 16 16 16 17 18 19 20 20 21 21 22 22 23 24 24 25 26 27 28 28 29 30 32 33 33 32 30 29 28 29 29 30 29 29 28 28 27 27 26 27 27 27 28 29 29 30 29 30 30 31 32 33
18 17 17 16 16 15 14 13 13 13 13 12 12 13 14 15 16 16 16 16 17 18 19 19 20 21 21 21 22 23 24 24 25 25 26 28 29 29 30 31 32 32 32 31 29 29 29 30 30 29 29 28 27 27 26 26 26 27 28 28 28 29 29 29 29 29 30 32 34
17 17 16 15 14 14 13 13 12 12 11 12 12 13 14 15 16 16 16 16 17 17 18 19 20 20 20 21 22 23 24 25 25 26 26 28 29 29 29 29 31 32 32 32 30 30 29 30 30 29 28 27 27 26 26 26 26 27 27 27 27 28 29 29 29 29 30 32 33
17 16 15 14 13 13 12 12 11 11 11 11 12 13 14 15 15 16 16 16 16 17 17 18 19 20 20 21 22 23 24 26 26 26 27 28 28 28 28 29 31 32 33 33 31 30 29 29 29 29 28 27 27 26 26 25 25 26 27 27 27 28 28 30 30 30 30 31 32
Wind_Direction
229 229 229 228 227 226 225 224 223 221 218 215 212 209 206 203 203 204 206 207 209 211 213 215 219 223 227 231 236 242 248 254 259 262 265 267 269 270 272 273 274 275 276 278 279 280 280 280 280 278 277 276 276 275 275 275 276 276 276 276 276 277 277 277 276 276 275 274 272
229 228 228 227 227 225 224 222 221 219 216 214 212 211 209 208 208 209 210 211 213 215 218 221 225 229 233 238 243 248 253 258 261 264 267 269 271 273 274 275 276 277 278 279 280 281 281 280 279 279 278 277 277 276 276 277 278 278 277 277 277 277 277 276 276 275 275 274 273
229 227 226 226 225 223 221 219 218 216 213 212 212 212 213 213 214 215 215 215 217 219 221 225 229 234 239 244 249 254 258 262 265 268 271 273 276 277 277 278 278 279 279 279 280 280 280 280 279 279 278 278 278 278 278 279 279 279 278 278 278 278 277 276 276 275 275 275 274
228 226 224 223 222 221 219 218 217 215 213 212 212 213 215 216 216 215 215 216 218 220 223 228 233 238 244 250 254 259 263 266 270 273 276 278 280 280 280 279 279 279 279 279 279 279 279 279 279 278 278 278 278 278 279 279 279 279 278 278 278 278 277 276 276 276 276 275 274
226 225 223 222 221 221 220 219 218 216 215 214 214 215 216 216 215 215 215 217 220 223 228 232 238 243 249 254 260 264 268 272 275 278 280 281 282 281 280 279 278 279 279 280 279 279 279 279 279 279 279 280 280 279 280 281 281 280 279 279 278 277 277 276 276 276 276 276 275
225 223 222 221 220 220 220 219 219 218 218 218 217 217 217 216 214 215 217 220 226 230 235 239 243 248 254 259 264 268 273 276 279 280 281 281 280 279 278 278 278 279 280 281 281 281 281 281 281 281 282 282 282 282 282 282 281 281 280 279 278 278 277 277 277 277 277 277 276
225 222 220 220 219 219 219 219 219 220 220 219 218 217 216 215 215 218 222 227 232 236 239 242 246 250 255 261 265 270 274 277 279 280 279 279 278 277 277 278 280 281 281 282 283 283 283 283 282 282 283 283 283 283 283 282 281 280 280 279 279 278 278 278 278 278 278 278 278
225 223 220 219 219 218 218 218 218 217 216 215 214 213 214 215 217 221 225 230 233 235 239 243 247 251 256 261 266 270 273 276 278 279 278 278 277 277 279 280 281 282 283 285 285 285 286 285 284 283 284 284 284 284 283 282 281 280 279 279 280 279 279 279 279 279 279 279 279
223 222 220 219 218 217 217 216 214 212 210 209 208 209 211 214 218 221 224 227 230 234 239 243 248 253 258 263 267 271 274 276 278 278 278 278 278 279 280 282 284 285 287 288 288 288 288 287 285 284 284 284 284 283 282 282 281 280 279 279 280 280 279 279 279 279 279 279 279
221 219 218 217 216 214 213 211 209 207 206 206 206 207 210 213 217 222 225 228 232 236 240 245 250 255 260 264 268 272 274 276 276 277 277 277 278 280 282 284 286 287 289 290 290 290 289 287 285 284 284 283 282 282 282 281 280 279 279 279 279 280 280 279 278 278 278 278 278
219 217 216 214 213 211 209 207 205 205 205 206 207 208 211 214 218 223 227 232 236 240 244 250 255 259 263 267 270 273 274 275 275 275 275 277 279 281 284 285 287 288 289 290 290 289 288 286 285 284 283 282 281 281 281 281 280 279 279 279 279 279 279 279 279 278 278 278 278
217 215 214 213 211 209 206 205 205 205 205 207 209 211 213 216 220 225 230 234 239 245 251 256 259 262 266 269 272 274 275 274 274 275 276 278 281 283 285 287 288 289 289 290 289 288 286 285 284 283 282 282 281 280 280 280 280 279 279 279 280 279 279 280 280 279 279 278 278
214 213 212 210 209 207 206 206 206 207 208 209 211 213 216 220 225 229 233 238 245 251 255 259 261 264 267 271 273 275 275 275 275 276 278 280 283 285 286 287 287 288 288 288 287 285 284 283 282 281 281 281 280 280 280 280 280 280 280 281 281 280 280 280 280 280 280 279 278
212 211 209 208 207 206 206 206 207 209 210 211 214 217 221 226 230 234 239 244 250 254 257 261 264 266 269 272 273 274 275 276 276 277 279 281 283 285 285 286 286 286 285 285 284 283 281 281 280 280 280 280 280 280 280 280 280 280 280 281 281 281 281 281 281 280 280 279 279
209 209 208 206 205 205 205 206 207 209 211 213 217 221 226 231 235 239 244 249 253 257 260 263 265 268 270 272 273 274 274 275 276 277 280 281 283 284 285 285 285 284 283 282 282 281 279 279 279 279 279 280 280 281 281 281 280 280 280 280 280 280 280 280 280 280 279 279 278
206 206 206 204 203 203 204 205 207 209 212 215 220 225 230 235 239 243 248 252 255 258 261 264 267 269 271 271 272 272 273 274 276 278 280 282 283 284 283 283 283 282 281 281 280 279 279 278 278 279 279 280 280 281 281 281 281 280 280 279 279 279 279 279 279 279 278 278 277
204 204 204 202 202 202 203 205 207 210 213 217 222 226 231 235 240 244 248 252 255 258 261 264 266 268 268 269 270 272 273 275 276 278 280 281 282 282 282 281 280 280 280 279 279 279 279 279 279 279 279 280 280 281 281 281 281 280 280 279 279 278 278 278 278 278 278 277 276
202 202 202 202 202 202 203 206 208 212 215 219 222 226 230 234 238 243 247 251 254 257 260 263 264 265 267 269 271 274 276 277 279 280 280 281 281 281 280 280 279 279 279 279 279 279 280 280 280 280 280 280 280 280 281 281 280 280 280 279 279 278 278 278 277 277 277 277 276
201 201 201 201 202 203 205 207 210 214 217 220 223 226 229 233 237 241 246 250 253 256 259 262 265 267 269 272 275 277 279 280 280 281 281 281 281 280 279 279 279 279 279 279 280 280 280 281 281 281 281 281 281 281 281 280 280 280 279 279 279 278 278 278 277 277 276 276 276
201 201 201 202 203 205 207 210 212 215 218 221 223 226 230 234 238 242 246 250 254 257 260 264 267 270 273 276 278 279 280 280 280 280 280 280 279 279 279 279 279 279 280 280 280 281 281 281 282 282 282 282 281 281 281 281 280 280 279 279 279 278 278 278 277 277 276 276 275
201 202 203 203 205 206 209 211 214 216 219 222 225 228 232 237 241 245 249 254 257 260 263 266 270 273 276 278 280 280 280 280 279 278 278 279 278 278 279 279 280 280 280 281 281 281 282 282 282 283 283 282 282 281 281 281 281 280 280 279 279 279 278 278 278 277 277 276 276
202 203 204 205 207 208 211 213 215 217 219 223 226 231 235 240 244 248 253 257 259 262 265 268 272 275 277 278 279 279 279 279 278 277 277 278 278 279 279 280 281 281 281 282 282 283 283 283 283 283 283 283 282 281 281 281 281 281 280 280 279 279 279 278 278 277 276 275 275
203 204 205 207 208 210 211 212 214 217 220 224 228 233 237 242 246 250 254 256 259 262 266 270 273 275 276 277 277 277 277 277 277 277 278 278 279 280 281 281 281 282 282 282 283 284 284 285 285 285 284 283 283 283 282 282 281 281 281 281 281 280 280 280 279 278 277 276 276
203 204 205 207 208 208 209 211 213 216 220 225 229 234 238 243 246 250 252 255 259 263 266 270 272 274 276 276 276 276 276 277 278 279 279 280 281 281 282 282 282 282 282 283 283 284 285 285 286 286 286 285 285 284 284 284 283 282 282 282 282 282 282 281 281 280 279 278 278
202 203 204 205 205 206 208 210 213 217 222 226 231 235 239 242 245 248 251 255 258 262 266 269 271 273 274 275 275 275 276 277 278 280 281 282 282 282 282 282 282 282 283 283 284 284 285 285 285 286 287 287 287 287 286 285 285 284 284 284 283 283 283 282 282 281 280 279 278
202 202 202 203 203 205 207 210 215 219 224 228 231 235 238 241 244 247 251 255 259 263 266 269 271 272 274 274 276 276 277 277 279 280 281 282 283 283 283 283 283 283 283 284 285 285 285 285 286 286 287 288 288 288 288 287 287 286 285 284 283 283 283 282 282 282 281 280 279
201 201 201 202 203 205 208 212 217 221 224 227 230 233 237 240 244 247 251 256 260 264 267 269 271 272 274 275 276 277 278 278 279 280 281 282 283 283 283 283 283 284 284 285 286 286 287 287 288 288 289 289 289 289 289 289 288 287 286 285 284 283 282 283 283 284 283 283 282
200 200 200 201 202 206 210 214 217 221 224 226 229 232 236 240 243 247 252 257 262 266 268 269 271 273 275 276 276 277 278 279 280 281 281 282 282 283 284 284 285 285 286 286 287 288 288 289 289 290 290 289 290 289 289 289 288 288 286 285 285 284 284 284 284 284 284 284 284
200 200 200 201 203 207 210 214 217 220 223 226 228 231 235 239 243 248 254 258 262 264 267 270 273 274 275 275 276 277 278 279 280 281 282 283 283 284 285 285 286 286 287 287 288 289 290 290 291 291 290 290 290 289 289 288 288 287 287 286 285 285 284 284 283 283 283 284 284
199 199 200 201 204 207 210 214 217 220 223 225 227 230 234 239 244 249 254 257 261 264 268 271 273 274 273 274 276 277 279 280 281 282 283 284 284 284 285 286 286 287 288 289 290 290 291 291 291 291 291 291 290 290 289 288 287 287 286 285 285 284 283 283 282 282 282 283 283
198 199 200 202 205 208 211 214 217 219 221 223 226 230 235 240 245 250 254 258 262 266 269 271 272 272 274 275 277 278 280 281 283 283 284 284 285 285 286 287 287 288 289 290 291 292 292 292 292 292 292 292 291 290 289 288 286 285 285 285 284 284 283 282 282 282 282 282 282
197 198 200 202 205 208 211 213 215 217 219 222 227 231 237 242 248 253 257 261 264 267 269 271 272 273 276 278 279 280 281 282 283 284 284 284 285 286 287 288 288 289 290 291 292 293 293 293 293 292 292 292 291 290 289 288 286 285 284 284 284 284 283 282 281 281 282 282 281
196 197 199 201 204 207 209 210 212 214 218 222 228 234 240 246 252 257 260 263 266 268 270 272 274 276 277 279 280 281 282 282 284 284 285 286 286 287 288 289 289 290 291 292 293 293 293 293 293 293 293 293 292 291 290 288 287 286 285 284 284 283 282 281 281 281 281 281 280
195 196 197 200 202 204 206 208 210 214 219 225 231 237 243 249 255 259 263 266 269 272 273 274 275 276 277 278 279 281 282 283 284 285 286 287 287 288 288 288 289 291 292 293 294 294 294 294 293 293 294 294 293 292 291 289 288 286 284 284 284 284 282 281 281 280 279 279 279
194 194 196 198 200 202 204 207 211 216 222 228 235 242 248 254 258 263 267 270 272 273 274 274 275 276 277 278 279 280 282 283 285 285 286 287 288 288 288 289 290 291 293 294 294 294 294 294 294 294 295 295 294 293 291 290 288 286 285 285 285 284 283 282 281 280 279 278 278
194 195 196 198 200 202 205 208 213 219 225 232 239 245 252 257 262 266 269 271 272 272 272 274 275 276 278 279 280 281 282 283 285 286 287 288 288 289 289 290 291 293 294 294 295 295 294 294 294 295 296 296 294 293 292 291 289 288 287 286 284 284 283 282 281 280 280 279 278
195 197 198 200 201 204 207 211 216 222 229 236 243 250 255 260 264 267 269 270 271 272 274 276 277 279 280 281 282 283 284 285 286 287 288 288 289 289 290 291 293 294 295 295 295 295 295 295 295 296 297 296 295 294 293 292 290 288 287 286 285 284 283 282 281 281 280 279 278
196 199 201 203 204 207 211 215 220 226 233 240 248 254 259 263 265 266 268 270 272 274 276 278 279 280 282 283 284 285 286 286 286 287 288 289 289 290 291 292 293 294 296 296 296 295 295 295 296 296 297 296 295 294 293 291 290 288 287 285 285 284 283 282 282 282 281 279 279
197 201 204 206 207 210 214 219 225 232 239 246 253 258 261 264 265 267 270 272 273 274 276 279 280 282 284 286 287 287 287 287 287 287 288 288 290 291 291 292 293 294 295 297 296 295 295 296 296 296 297 296 295 293 292 290 288 287 286 285 285 286 285 284 283 282 281 280 281
197 201 204 208 211 214 219 224 231 239 246 252 256 259 262 265 267 270 273 273 274 275 277 279 281 284 286 287 287 287 287 287 288 288 288 289 290 291 292 291 291 293 295 296 296 296 295 296 296 297 297 296 295 293 291 289 287 286 286 286 286 287 287 287 285 283 281 281 283
196 200 204 209 213 219 224 230 237 243 249 253 256 259 263 267 269 271 273 273 273 274 277 279 282 283 285 285 286 286 287 288 288 289 290 291 291 292 291 291 291 293 295 296 297 297 297 297 297 297 297 296 295 293 291 289 288 287 287 287 287 287 287 287 287 285 283 282 283
Height
808 809 809 810 810 811 811 812 812 812 813 813 813 814 814 815 816 816 817 817 818 819 819 820 821 821 822 822 822 822 822 822 822 822 822 822 822 822 822 821 821 821 820 820 819 819 818 818 818 817 817 816 816 815 814 814 813 812 812 811 810 809 809 808 807 807 806 805 805
806 807 808 808 809 809 810 810 811 811 811 812 812 812 813 814 814 815 816 817 817 818 818 819 820 820 820 821 821 821 821 821 821 821 821 821 820 820 820 819 819 819 818 818 817 817 817 817 816 816 815 814 814 813 812 812 812 811 810 809 808 807 807 806 805 804 804 803 803
805 806 806 807 807 807 808 808 809 809 810 810 811 812 812 813 813 814 815 815 816 817 817 818 818 819 819 819 819 819 819 819 819 819 819 819 818 818 818 818 817 817 817 816 816 816 815 815 815 814 813 812 812 811 810 810 810 809 808 807 806 806 805 804 803 802 802 802 801
803 804 805 805 805 806 806 807 807 808 808 809 810 811 811 812 812 813 814 814 815 816 816 817 817 817 817 818 818 818 818 818 818 817 817 817 817 817 816 816 816 815 815 815 814 814 814 814 813 812 812 811 810 809 808 808 807 807 806 805 805 804 803 802 801 801 800 800 799
802 802 803 803 804 804 805 805 806 807 807 808 809 809 810 811 811 812 812 813 814 814 815 815 816 816 816 816 816 816 816 816 816 816 815 815 815 815 815 814 814 814 813 813 813 812 812 812 812 811 810 809 808 807 807 806 806 805 804 803 802 802 801 800 800 799 798 798 797
800 801 801 802 803 803 804 804 805 806 807 807 808 808 809 809 810 811 812 812 813 813 814 814 814 814 814 814 814 814 814 814 814 814 813 813 813 813 813 812 812 812 812 812 811 811 811 810 809 809 808 807 806 805 805 805 804 803 802 801 800 800 799 798 798 797 797 796 795
798 799 800 801 802 802 803 803 804 805 806 806 807 807 807 808 809 810 810 811 812 812 812 812 812 812 812 812 812 812 812 812 812 812 812 812 812 811 811 811 810 810 810 810 809 809 809 808 807 807 806 805 804 804 803 803 802 801 800 799 798 798 798 797 796 796 795 794 793
797 798 799 800 801 801 802 802 803 804 804 805 805 806 806 807 808 808 809 810 810 810 811 811 811 811 811 811 811 811 811 810 810 810 810 810 810 809 809 809 809 808 808 808 807 807 807 806 806 805 804 803 802 802 801 801 800 799 798 797 796 796 796 795 795 794 793 792 791
796 797 797 798 799 800 801 802 802 803 803 804 804 805 805 806 807 807 808 808 808 809 809 809 809 809 809 809 809 809 809 809 808 808 808 808 808 807 807 807 807 806 806 806 806 805 805 804 803 803 802 802 801 800 799 799 798 797 796 796 795 794 793 793 793 792 791 791 789
794 795 796 797 797 798 799 800 801 802 802 802 803 804 804 805 805 806 806 807 807 807 807 807 808 808 807 807 807 807 807 807 807 807 807 806 806 806 805 805 805 804 804 803 803 803 803 802 801 801 800 799 799 798 797 797 796 795 794 793 793 792 791 791 791 790 789 788 787
792 793 794 795 796 797 798 799 799 800 801 801 802 802 803 804 804 804 805 805 806 806 806 806 806 806 806 806 806 806 806 806 805 805 805 804 804 804 803 803 803 802 802 802 802 801 801 800 799 798 798 797 797 796 795 795 794 793 792 791 791 790 789 788 788 788 787 786 785
791 792 792 793 794 795 796 797 797 798 799 800 800 801 802 802 803 803 804 804 804 804 804 804 804 804 804 804 804 804 804 804 804 803 803 803 802 802 802 801 801 801 800 800 800 799 799 798 797 797 796 795 795 794 793 792 792 791 790 789 788 788 787 786 786 786 785 784 783
789 790 791 792 793 793 794 795 796 797 797 798 799 800 800 801 802 802 802 802 802 802 803 803 803 803 802 802 802 802 802 802 802 802 801 801 801 800 800 800 799 799 798 798 798 798 797 797 796 795 794 793 792 792 792 791 790 789 788 787 786 785 785 784 783 783 782 782 781
788 788 789 790 791 792 793 794 794 795 796 797 797 798 799 800 800 801 801 801 801 801 801 801 801 801 801 801 801 801 801 801 801 800 800 799 799 799 798 798 797 797 797 797 796 796 796 795 794 793 792 791 790 790 789 789 788 787 786 785 784 783 782 782 781 781 780 779 778
786 787 787 788 789 790 791 792 793 794 795 795 796 797 797 798 799 799 799 799 800 800 800 800 800 800 800 800 800 800 799 799 799 799 798 798 797 797 797 796 796 796 795 795 794 794 794 793 792 791 790 789 788 787 787 787 786 785 784 783 782 781 780 779 779 778 777 777 776
784 785 786 787 787 788 789 790 791 792 793 794 795 795 796 797 797 797 798 798 798 798 798 798 798 798 798 798 798 798 798 798 797 797 797 796 796 796 795 795 794 794 793 793 792 792 792 791 790 789 788 787 786 785 784 784 783 782 782 781 780 778 777 777 776 776 775 774 773
783 783 784 785 786 786 787 788 789 791 792 792 793 794 794 795 795 796 796 796 797 797 797 797 797 797 797 797 797 797 797 796 796 796 795 795 794 794 793 793 792 792 792 792 791 790 789 789 788 787 786 785 784 783 782 781 781 780 779 778 777 776 775 774 774 773 772 772 771
781 782 782 783 784 785 786 787 788 789 790 791 792 792 792 793 793 794 794 795 795 795 795 795 795 796 796 795 795 795 795 795 794 794 793 793 792 792 792 791 791 791 790 790 789 788 787 786 786 785 784 783 782 781 780 779 778 777 776 775 774 773 773 772 771 771 770 769 768
779 780 781 781 782 783 784 785 786 787 788 789 790 790 791 791 792 792 792 793 793 793 794 794 794 794 794 794 794 793 793 793 792 792 792 791 791 790 790 789 789 789 788 787 787 786 785 784 783 782 782 780 779 778 777 776 775 774 773 772 772 771 770 769 769 768 767 767 765
778 778 779 780 780 782 782 783 785 786 787 787 788 789 789 790 790 791 791 791 792 792 792 792 792 792 792 792 792 792 792 791 791 790 790 789 789 789 788 787 787 787 786 786 785 784 783 782 781 780 779 778 777 776 774 774 773 772 771 770 769 768 767 767 766 765 764 764 763
776 777 777 778 779 780 781 782 783 784 785 786 787 787 787 788 788 789 789 790 790 790 790 790 790 790 790 790 790 790 790 789 789 789 788 788 787 787 786 786 785 784 784 783 782 782 781 779 778 777 777 775 774 773 772 771 770 769 768 767 766 765 764 764 763 762 762 761 760
775 776 776 777 778 779 780 781 782 783 783 784 785 785 786 787 787 787 787 788 788 788 788 788 789 789 788 788 788 788 788 788 787 787 786 786 785 785 784 784 783 782 782 781 780 779 778 777 776 775 774 773 772 770 769 768 767 766 765 764 763 762 762 761 760 759 758 758 757
774 775 775 776 777 778 779 780 780 781 782 782 783 784 784 785 785 786 786 786 787 787 787 787 787 787 787 787 787 787 786 786 785 785 784 784 783 782 782 782 781 780 779 778 778 777 776 775 774 773 772 771 769 768 767 766 765 763 762 761 760 759 758 758 757 757 756 755 754
773 773 774 775 776 777 777 778 779 780 780 781 782 782 783 783 784 784 784 785 785 785 785 785 785 785 785 785 785 785 785 784 783 782 782 782 781 780 780 779 779 778 777 776 776 775 774 773 772 770 769 768 767 766 764 763 762 761 760 759 757 757 756 755 754 754 753 752 751
772 772 773 773 774 775 776 776 777 778 779 779 780 781 781 782 782 782 783 783 783 783 783 784 784 784 784 784 783 783 783 782 782 781 780 779 779 778 778 777 777 776 775 774 774 773 772 772 771 769 767 766 765 763 762 761 760 759 758 757 755 754 752 751 751 750 750 749 747
770 771 771 772 772 773 774 775 776 776 777 778 779 779 780 780 781 781 781 782 782 782 782 782 782 782 782 782 782 781 781 780 780 779 778 777 777 776 776 775 774 774 773 772 772 771 770 770 769 767 766 764 763 761 760 758 757 757 756 754 753 752 750 748 747 747 746 746 744
768 769 770 770 771 772 772 773 774 775 776 777 777 778 778 779 779 780 780 780 780 781 781 781 781 781 781 780 780 779 779 778 778 777 777 776 775 774 773 773 772 771 771 770 769 769 768 767 766 765 764 763 761 759 758 756 755 754 753 752 750 749 748 747 745 744 743 742 741
767 767 768 769 770 771 771 772 773 774 774 775 776 776 777 777 778 778 778 779 779 779 779 779 779 779 779 778 778 777 777 777 776 775 775 774 773 772 771 770 770 769 768 768 767 767 766 765 764 763 762 761 759 757 756 754 753 752 750 749 748 747 746 744 743 742 740 739 738
765 766 767 768 768 769 770 771 772 772 773 774 775 775 776 776 777 777 777 777 777 777 777 777 777 777 777 777 776 776 775 775 774 773 772 772 771 770 769 768 767 767 766 766 765 764 763 762 761 760 759 759 757 756 754 752 751 749 748 747 746 745 743 742 741 739 738 737 735
764 765 766 767 767 768 769 770 771 772 772 773 773 774 774 775 775 775 776 776 776 776 776 776 776 776 775 775 774 774 773 772 772 771 771 769 768 767 767 766 765 764 764 763 763 762 761 760 759 758 757 756 755 754 752 750 749 747 746 744 743 742 741 740 738 737 736 734 733
762 763 764 765 766 767 768 769 770 771 771 772 772 773 773 774 774 774 774 774 774 774 775 775 774 774 773 773 772 772 771 770 770 769 768 767 766 765 764 764 763 762 762 761 761 760 759 757 757 755 755 754 753 752 750 748 747 745 743 742 741 740 739 737 736 735 733 732 731
761 762 763 764 765 766 767 768 769 770 770 771 771 772 772 772 772 773 773 773 773 773 773 773 772 772 771 771 770 770 769 768 767 767 766 766 764 763 762 761 761 760 759 759 758 757 756 755 754 753 752 752 751 749 747 746 744 743 741 740 739 737 737 735 734 732 731 729 728
760 761 762 763 764 765 766 767 768 768 769 770 770 770 771 771 771 771 772 772 772 771 771 771 770 770 769 769 768 767 767 767 766 765 764 764 763 762 760 759 758 757 757 757 756 755 754 753 752 751 750 749 748 746 745 743 742 740 739 737 736 735 734 733 731 730 728 727 725
759 760 761 762 763 764 765 766 767 767 768 768 769 769 769 770 770 770 770 770 770 770 769 769 769 768 767 767 767 766 765 764 764 763 762 762 761 760 758 757 756 755 755 755 754 753 752 751 750 748 747 747 745 744 742 741 739 738 736 735 733 732 731 730 728 727 725 723 722
758 759 760 761 762 763 764 765 765 766 767 767 767 767 768 768 768 768 768 768 768 768 767 767 767 767 766 765 765 764 763 762 762 761 761 760 759 758 756 755 753 753 753 753 752 751 750 748 747 746 745 744 743 741 740 738 737 735 734 732 731 729 728 727 726 724 722 721 719
757 758 759 760 761 762 762 763 764 764 765 765 766 766 766 767 767 767 767 767 767 766 766 765 765 765 764 763 763 762 762 761 760 759 759 758 757 756 754 752 751 751 751 750 750 749 747 746 745 744 743 742 741 739 737 736 734 733 731 730 728 727 725 724 722 721 719 717 716
756 757 758 760 760 761 762 762 762 763 763 764 764 764 765 765 765 765 765 765 765 765 764 763 763 762 762 762 761 761 760 760 759 758 757 756 755 754 752 750 749 748 748 748 747 746 745 744 743 742 741 740 738 737 735 734 732 731 729 727 726 724 722 721 719 717 716 714 712
756 757 758 759 759 760 760 761 761 762 762 762 763 763 763 763 763 764 764 764 763 763 762 762 761 761 760 760 759 758 758 758 757 756 755 754 753 752 751 748 747 746 746 746 745 744 743 742 741 740 740 738 737 735 733 732 730 728 727 725 723 721 719 718 717 715 712 711 709
755 756 757 757 758 759 759 760 760 760 761 761 761 762 762 762 762 762 762 762 762 761 760 760 759 758 758 758 757 757 756 756 755 755 754 752 752 751 750 747 745 743 743 743 743 742 741 740 739 738 737 737 735 733 732 730 728 726 724 722 721 718 717 715 714 712 709 707 706
754 755 756 756 757 757 758 758 759 759 759 760 760 760 760 760 760 760 760 760 760 759 758 758 757 757 757 756 756 755 754 753 753 753 752 751 750 749 748 746 744 742 741 741 740 740 739 738 737 736 735 734 733 732 730 728 726 724 722 720 718 716 714 712 711 709 706 704 702
753 754 755 755 756 756 757 757 757 758 758 758 758 758 759 759 759 758 758 758 757 757 757 756 755 755 755 754 754 753 752 751 751 751 750 749 748 747 746 745 742 740 739 738 738 737 737 736 735 734 733 732 731 730 728 726 724 722 720 718 716 714 712 709 707 705 703 701 698